Powrót do katalogu

LYNK TOWER 4

AktywnyŁącznośćSSO
NORAD 55034·PAYLOAD·🇺🇸 United States

Wystrzelony Jan 3, 2023 z Cape Canaveral Space Force Station

Loading…

Następne Przeloty (najbliższe 24 godziny)

TLE

ŚwieżeSource: Space-Track

Epoka: Sep 14, 2026, 10:01 UTC

1 55034U 23001AB  26257.41739506  .00005757  00000-0  17450-3 0  9994
2 55034  97.3100 315.5147 0008720 148.7888 211.3874 15.34490849205501

Śledź LYNK TOWER 4 w czasie rzeczywistym z AllMySat

Download on the App Store